Location: Cucq
(50.4773°N, 1.6202°E)
Time: 16:32:18
(UTC+00:00)

Cosmos 2219 Rocket - Pass Details

Date: 07 August 2020
Orbit: 826 x 848 km, 71.0° (Epoch: 18 September)

Event Time Altitude Azimuth Distance (km) Brightness Sun altitude
Rises 00:01:46 0° 330° (NNW) 3,415 6.3 -23.2°
Reaches altitude 10° 00:04:14 10° 331° (NNW) 2,478 5.4 -23.2°
Maximum altitude 00:09:57 88° 61° (ENE) 856 2.1 -23.1°
Enters shadow 00:11:36 49° 149° (SSE) 1,090 2.4 -23.1°
